Location: Ballingbuur
(53.0000°N, 5.7667°E)
Time: 06:57:18
(UTC+00:00)

USA 290 - Pass Details

Date: 29 November 2020
Orbit: 399 x 412 km, 73.6° (Epoch: 27 December)

Event Time Altitude Azimuth Distance (km) Brightness Sun altitude
Exits shadow 06:07:44 - 344° (NNW) 1,811 5.1 -11.0°
Reaches altitude 10° 06:08:32 10° 349° (N) 1,501 4.7 -10.9°
Maximum altitude 06:11:33 33° 56° (NE) 725 3.8 -10.4°
Drops below altitude 10° 06:14:34 10° 122° (ESE) 1,489 6.6 -10.0°
Sets 06:16:43 0° 133° (SE) 2,346 7.6 -9.7°
